Regional Weather Roundup
Issued by NWS

Home | Current Version | Previous Version | Graphics & Text | Print | Product List | Glossary On
Versions: 1 2 3 4 5 6 7 8 9 10 11 12 13 14 15 16 17 18 19 20 21 22 23 24 25 26 27 28 29 30 31 32 33 34 35 36 37 38 39 40 41 42 43 44 45 46 47 48 49 50
000
ASUS43 KLSX 270357
RWRMO

WEATHER SUMMARY FOR MISSOURI
NATIONAL WEATHER SERVICE SPRINGFIELD MO
1100 PM CDT WED APR 26 2017

NOTE: "FAIR" INDICATES FEW OR NO CLOUDS BELOW 12,000 FEET WITH NO
       SIGNIFICANT WEATHER AND/OR OBSTRUCTIONS TO VISIBILITY.
       CURRENT SKY AND/OR WEATHER CONDITIONS ARE NOT AVAILABLE FOR
       CHILLICOTHE AND FARMINGTON.

MOZ001>031-035>038-043-044-053-054-270500-
...NORTHERN AND WESTERN MISSOURI...

CITY           SKY/WX    TMP DP  RH WIND       PRES   REMARKS
KANSAS CTY INT CLOUDY    44  35  70 NW10      29.67R
LEE`S SUMMIT   CLOUDY    44  38  79 NW9       29.67R
ST JOSEPH      CLOUDY    44  36  73 NW10      29.69R
CHILLICOTHE      N/A     44  38  79 NW8       29.65R
KIRKSVILLE     LGT RAIN  45  45 100 NW12      29.57F FOG

$$
MOZ066>068-077>081-088>096-101>105-270500-
...SOUTHWEST MISSOURI...

CITY           SKY/WX    TMP DP  RH WIND       PRES   REMARKS
SPRINGFIELD    LGT RAIN  45  43  93 W12       29.67R
JOPLIN         PTCLDY    45  44  97 W6        29.70R

$$
MOZ032>034-039>042-045>050-055>058-069>072-270500-
...CENTRAL MISSOURI...

CITY           SKY/WX    TMP DP  RH WIND       PRES   REMARKS
COLUMBIA       NOT AVBL
JEFFERSON CITY LGT RAIN  49  45  86 W16       29.58R
ROLLA          LGT RAIN  45  45 100 NW16G22   29.55R
SEDALIA        LGT RAIN  45  45 100 NW10      29.64R

$$
MOZ051-052-059>065-270500-
...EAST CENTRAL MISSOURI...

CITY           SKY/WX    TMP DP  RH WIND       PRES   REMARKS
ST LOUIS INTL  RAIN      55  52  89 NW13G21   29.42F FOG

$$
MOZ072>076-082>087-097>100-106>115-270500-
...SOUTH CENTRAL AND SOUTHEAST MISSOURI...

CITY           SKY/WX    TMP DP  RH WIND       PRES   REMARKS
CAPE GIRARDEAU LGT RAIN  58  57  97 SE21G28   29.49F
POPLAR BLUFF   CLOUDY    59  58  96 SE10      29.48F
WEST PLAINS    LGT RAIN  47  45  93 W8        29.61R

$$


USA.gov is the U.S. government's official web portal to all federal, state and local government web resources and services.